This demonstration page uses our WeatherBlox Daily Observations layout. Learn more.

Hourly Observations for September 1, 2015

Temp ( °F °C ) Dew Point ( °F °C ) Humidity (%) Winds ( mph kmh ) Pressure ( in mb ) Visibility ( mi km ) Precip ( " mm )
12:15 am 00:15 Clear 70 21 59 15 69 69 SSE 7 11 29.83 1010 10 16.09344 0 0
12:35 am 00:35 Clear 70 21 59 15 69 69 SSE 8 13 29.83 1010 10 16.09344 0 0
12:55 am 00:55 Clear 72 22 57 14 61 61 S 8 13 29.83 1010 10 16.09344 0 0
1:15 am 01:15 Clear 72 22 57 14 61 61 S 7 11 29.85 1011 10 16.09344 0 0
1:35 am 01:35 Clear 70 21 57 14 64 64 S 6 9 29.85 1011 10 16.09344 0 0
1:55 am 01:55 Clear 68 20 59 15 73 73 S 7 11 29.85 1011 10 16.09344 0 0
2:15 am 02:15 Clear 70 21 59 15 69 69 S 7 11 29.85 1011 10 16.09344 0 0
2:35 am 02:35 Clear 70 21 57 14 64 64 S 8 13 29.85 1011 10 16.09344 0 0
2:55 am 02:55 Clear 70 21 57 14 64 64 S 8 13 29.83 1010 10 16.09344 0 0
3:15 am 03:15 Clear 70 21 55 13 60 60 SSW 8 13 29.83 1010 10 16.09344 0 0
3:35 am 03:35 Clear with Nearby Thunderstorms 70 21 55 13 60 60 S 10 17 29.83 1010 10 16.09344 0 0
3:55 am 03:55 Clear with Nearby Thunderstorms 72 22 55 13 57 57 SSW 13 20 29.83 1010 10 16.09344 0 0
4:15 am 04:15 Clear 72 22 55 13 57 57 S 13 20 29.83 1010 10 16.09344 0 0
4:35 am 04:35 Clear with Thunderstorms 72 22 55 13 57 57 S 13 20 29.83 1010 10 16.09344 0 0
4:55 am 04:55 Clear with Nearby Thunderstorms 72 22 54 12 53 53 S 10 17 29.85 1011 10 16.09344 0 0
5:15 am 05:15 Clear 72 22 55 13 57 57 S 9 15 29.83 1010 10 16.09344 0 0
5:35 am 05:35 Clear 70 21 55 13 60 60 S 10 17 29.83 1010 10 16.09344 0 0
5:55 am 05:55 Clear 70 21 55 13 60 60 S 12 19 29.83 1010 10 16.09344 0 0
6:15 am 06:15 Partly Cloudy 70 21 55 13 60 60 S 9 15 29.83 1010 10 16.09344 0 0
6:35 am 06:35 Clear 70 21 55 13 60 60 S 9 15 29.83 1010 10 16.09344 0 0
6:55 am 06:55 Clear 70 21 55 13 60 60 SSE 8 13 29.83 1010 10 16.09344 0 0
7:15 am 07:15 Sunny 70 21 55 13 60 60 S 9 15 29.85 1011 10 16.09344 0 0
7:35 am 07:35 Sunny 70 21 55 13 60 60 S 6 9 29.85 1011 10 16.09344 0 0
7:55 am 07:55 Sunny 70 21 55 13 60 60 SSW 7 11 29.85 1011 10 16.09344 0 0
8:15 am 08:15 Sunny 70 21 57 14 64 64 SW 3 6 29.85 1011 10 16.09344 0 0
8:35 am 08:35 Sunny 70 21 57 14 64 64 SW 6 9 29.85 1011 10 16.09344 0 0
8:55 am 08:55 Sunny 70 21 57 14 64 64 SW 6 9 29.85 1011 10 16.09344 0 0
9:15 am 09:15 Sunny 72 22 57 14 61 61 SW 9 15 29.85 1011 10 16.09344 0 0
9:35 am 09:35 Sunny 73 23 57 14 57 57 SW 9 15 29.83 1010 10 16.09344 0 0
9:55 am 09:55 Sunny 75 24 59 15 57 57 SSW 13 20 29.83 1010 10 16.09344 0 0
10:15 am 10:15 Sunny 77 25 59 15 54 54 SSW 12 19 29.83 1010 10 16.09344 0 0
10:35 am 10:35 Sunny 77 25 57 14 51 51 SW 12 19 29.83 1010 10 16.09344 0 0
10:55 am 10:55 Sunny 79 26 57 14 48 48 SW 12 19 29.83 1010 10 16.09344 0 0
11:15 am 11:15 Sunny 79 26 59 15 51 51 SSW 13 20 29.85 1011 10 16.09344 0 0
11:35 am 11:35 Sunny 81 27 59 15 48 48 SW 8 13 29.8 1009 10 16.09344 0 0
11:55 am 11:55 Sunny 81 27 59 15 48 48 SSW 7 11 29.8 1009 10 16.09344 0 0
12:15 pm 12:15 Sunny 82 28 59 15 45 45 SSW 8 13 29.8 1009 10 16.09344 0 0
12:35 pm 12:35 Sunny 82 28 59 15 45 45 SSE 6 9 29.8 1009 10 16.09344 0 0
12:55 pm 12:55 Sunny 82 28 59 15 45 45 SSW 7 11 29.8 1009 10 16.09344 0 0
1:15 pm 13:15 Sunny 82 28 59 15 45 45 SSE 7 11 29.8 1009 10 16.09344 0 0
1:35 pm 13:35 Sunny 84 29 59 15 43 43 SSE 6 9 29.8 1009 10 16.09344 0 0
1:55 pm 13:55 Sunny 84 29 59 15 43 43 SSE 6 9 29.8 1009 10 16.09344 0 0
2:15 pm 14:15 Sunny 86 30 59 15 40 40 SE 7 11 29.77 1008 10 16.09344 0 0
2:35 pm 14:35 Sunny 86 30 61 16 43 43 SSE 9 15 29.77 1008 10 16.09344 0 0
2:55 pm 14:55 Sunny 86 30 61 16 43 43 SE 10 17 29.74 1007 10 16.09344 0 0
3:15 pm 15:15 Sunny 86 30 59 15 40 40 S 9 15 29.74 1007 10 16.09344 0 0
3:35 pm 15:35 Sunny 88 31 59 15 38 38 SSE 9 15 29.74 1007 10 16.09344 0 0
3:55 pm 15:55 Sunny 88 31 57 14 35 35 SSW 6 9 29.74 1007 10 16.09344 0 0
4:15 pm 16:15 Sunny 88 31 57 14 35 35 SSE 6 9 29.74 1007 10 16.09344 0 0
4:35 pm 16:35 Sunny 88 31 57 14 35 35 S 5 7 29.74 1007 10 16.09344 0 0
4:55 pm 16:55 Sunny 88 31 59 15 38 38 SSE 7 11 29.74 1007 10 16.09344 0 0
5:15 pm 17:15 Sunny 88 31 59 15 38 38 SE 8 13 29.74 1007 10 16.09344 0 0
5:35 pm 17:35 Sunny 86 30 61 16 43 43 SSE 5 7 29.74 1007 10 16.09344 0 0
5:55 pm 17:55 Sunny 88 31 61 16 40 40 SE 9 15 29.74 1007 10 16.09344 0 0
6:15 pm 18:15 Sunny 88 31 59 15 38 38 SE 9 15 29.74 1007 10 16.09344 0 0
6:35 pm 18:35 Sunny 88 31 63 17 43 43 SE 7 11 29.74 1007 10 16.09344 0 0
6:55 pm 18:55 Sunny 88 31 63 17 43 43 ESE 8 13 29.71 1006 10 16.09344 0 0
7:15 pm 19:15 Sunny 86 30 63 17 46 46 ESE 5 7 29.71 1006 10 16.09344 0 0
7:35 pm 19:35 Sunny 84 29 63 17 48 48 ESE 6 9 29.74 1007 10 16.09344 0 0
7:55 pm 19:55 Sunny 81 27 64 18 58 58 ESE 5 7 29.74 1007 10 16.09344 0 0
8:15 pm 20:15 Clear 77 25 64 18 65 65 SE 6 9 29.77 1008 7 11.265408 0 0
8:35 pm 20:35 Clear 75 24 64 18 69 69 SE 6 9 29.77 1008 10 16.09344 0 0
8:55 pm 20:55 Clear 73 23 64 18 74 74 ESE 3 6 29.8 1009 10 16.09344 0 0
9:15 pm 21:15 Clear 73 23 64 18 74 74 ESE 3 6 29.8 1009 7 11.265408 0 0
9:35 pm 21:35 Clear 73 23 64 18 74 74 SE 9 15 29.8 1009 10 16.09344 0 0
9:55 pm 21:55 Clear 73 23 64 18 74 74 SE 7 11 29.8 1009 10 16.09344 0 0
10:15 pm 22:15 Clear 73 23 64 18 74 74 SE 5 7 29.8 1009 10 16.09344 0 0
10:35 pm 22:35 Clear 72 22 63 17 73 73 SSE 5 7 29.83 1010 10 16.09344 0 0
10:55 pm 22:55 Clear 73 23 63 17 69 69 SSE 3 6 29.8 1009 10 16.09344 0 0
11:15 pm 23:15 Clear 73 23 61 16 65 65 S 5 7 29.8 1009 10 16.09344 0 0
11:35 pm 23:35 Clear 72 22 61 16 69 69 SSE 7 11 29.83 1010 10 16.09344 0 0
11:55 pm 23:55 Clear 72 22 61 16 69 69 SE 13 20 29.83 1010 10 16.09344 0 0

Powered by AerisWeather